TimeEDT,TemperatureF,Dew PointF,Humidity,Sea Level PressureIn,VisibilityMPH,Wind Direction,Wind SpeedMPH,Gust SpeedMPH,PrecipitationIn,Events,Conditions,WindDirDegrees,DateUTC
12:54 AM,63.0,53.1,70,30.06,10.0,Calm,Calm,-,N/A,,Clear,0,2013-09-04 04:54:00
1:54 AM,59.0,54.0,83,30.07,10.0,West,3.5,-,N/A,,Clear,280,2013-09-04 05:54:00
2:54 AM,59.0,54.0,83,30.08,10.0,WSW,4.6,-,N/A,,Clear,240,2013-09-04 06:54:00
3:54 AM,57.9,54.0,87,30.08,10.0,Calm,Calm,-,N/A,,Clear,0,2013-09-04 07:54:00
4:54 AM,57.9,53.1,84,30.09,10.0,Calm,Calm,-,N/A,,Partly Cloudy,0,2013-09-04 08:54:00
5:54 AM,57.0,52.0,83,30.09,10.0,Calm,Calm,-,N/A,,Scattered Clouds,0,2013-09-04 09:54:00
6:54 AM,57.0,53.1,87,30.10,10.0,Calm,Calm,-,N/A,,Clear,0,2013-09-04 10:54:00
7:54 AM,57.9,53.1,84,30.13,10.0,Calm,Calm,-,N/A,,Partly Cloudy,0,2013-09-04 11:54:00
8:54 AM,63.0,55.9,78,30.14,7.0,Calm,Calm,-,N/A,,Partly Cloudy,0,2013-09-04 12:54:00
9:54 AM,68.0,55.9,65,30.14,10.0,WSW,3.5,-,N/A,,Partly Cloudy,250,2013-09-04 13:54:00
10:54 AM,73.0,55.9,55,30.15,10.0,West,4.6,-,N/A,,Partly Cloudy,260,2013-09-04 14:54:00
11:54 AM,75.0,54.0,48,30.14,10.0,Calm,Calm,-,N/A,,Scattered Clouds,0,2013-09-04 15:54:00
12:54 PM,77.0,55.0,47,30.14,10.0,NNW,8.1,-,N/A,,Partly Cloudy,340,2013-09-04 16:54:00
1:54 PM,80.1,55.0,42,30.13,10.0,WNW,8.1,-,N/A,,Partly Cloudy,300,2013-09-04 17:54:00
2:54 PM,80.1,53.1,39,30.12,10.0,SW,3.5,-,N/A,,Partly Cloudy,230,2013-09-04 18:54:00
3:54 PM,82.0,52.0,35,30.11,10.0,WNW,6.9,-,N/A,,Scattered Clouds,290,2013-09-04 19:54:00
4:54 PM,82.0,53.1,37,30.10,10.0,WNW,9.2,-,N/A,,Scattered Clouds,300,2013-09-04 20:54:00
5:54 PM,81.0,52.0,36,30.10,10.0,WNW,6.9,-,N/A,,Scattered Clouds,290,2013-09-04 21:54:00
6:54 PM,81.0,54.0,39,30.09,10.0,NW,5.8,-,N/A,,Partly Cloudy,320,2013-09-04 22:54:00
7:54 PM,75.9,55.0,48,30.09,10.0,WNW,5.8,-,N/A,,Partly Cloudy,290,2013-09-04 23:54:00
8:54 PM,71.1,57.0,61,30.10,10.0,WSW,6.9,-,N/A,,Partly Cloudy,240,2013-09-05 00:54:00
9:54 PM,71.1,57.0,61,30.12,10.0,West,5.8,-,N/A,,Partly Cloudy,280,2013-09-05 01:54:00
10:54 PM,69.1,57.0,65,30.12,10.0,WSW,5.8,-,N/A,,Partly Cloudy,250,2013-09-05 02:54:00
11:54 PM,68.0,57.0,68,30.12,10.0,West,4.6,-,N/A,,Clear,260,2013-09-05 03:54:00